Regional Weather Roundup
Issued by NWS

Home | Current Version | Previous Version | Graphics & Text | Print | Product List | Glossary On
Versions: 1 2 3 4 5 6 7 8 9 10 11 12 13 14 15 16 17 18 19 20 21 22 23 24 25 26 27 28 29 30 31 32 33 34 35 36 37 38 39 40 41 42 43 44 45 46 47 48 49 50
000
ASUS43 KIND 310259
RWRIN

WEATHER ROUNDUP FOR INDIANA
NATIONAL WEATHER SERVICE INDIANAPOLIS IN
1100 PM EDT THU JUL 30 2015

NOTE: "FAIR" INDICATES FEW OR NO CLOUDS BELOW 12,000 FEET WITH NO
SIGNIFICANT WEATHER AND/OR OBSTRUCTIONS TO VISIBILITY.

* - STATION DOES NOT REPORT WEATHER SUCH AS PRECIPITATION OR FOG.

+ - STATION NOT QUALITY CONTROLLED BY THE NATIONAL WEATHER SERVICE.
    USE DATA WITH CAUTION...ESPECIALLY DEWPOINT AND RELATIVE
    HUMIDITY OBSERVATIONS.

INZ001>003-010>013-019-020-310400-
NORTHWEST INDIANA

CITY           SKY/WX    TMP DP  RH WIND       PRES   REMARKS
GARY /AIRPORT/ CLEAR     79  61  53 W8        30.02R
MONTICELLO +   CLEAR     71  64  78 W5        30.03S
RENSSELAER +   CLEAR     70  64  83 SW3       30.05R

$$

LMZ046-743>745-310400-
SOUTHERN LAKE MICHIGAN

STATION/POSITION TIME  TEMP    WIND        PRES    WAVE
                       AIR SEA DIR/SP/G            HT
                 (UTC) (F)     (DEG/KT/KT) (MB)    (FT)
BURNS HARBOR     0200   79     270/ 11/ 14 1015.9F
MICHIGAN CITY    0200   77     190/  6/  7   N/A
5NW MICH CITY    0200   77 75  220/  4/  6   N/A     1

$$

INZ004-005-014>016-021>024-310400-
NORTH CENTRAL INDIANA

CITY           SKY/WX    TMP DP  RH WIND       PRES   REMARKS
GOSHEN         CLEAR     68  59  73 S5        30.02R
SOUTH BEND     CLEAR     74  59  59 SW5       30.02R

$$

INZ006>009-017-018-025>027-310400-
NORTHEAST INDIANA

CITY           SKY/WX    TMP DP  RH WIND       PRES   REMARKS
ANGOLA *+      CLEAR     66  61  82 CALM      30.02S
FORT WAYNE     CLEAR     68  61  78 SW6       30.04R

$$

INZ028-029-035-036-043>045-051>053-310400-
WEST CENTRAL INDIANA

CITY           SKY/WX    TMP DP  RH WIND       PRES   REMARKS
CRAWFORDSVL +  CLEAR     64  64 100 CALM        N/A
GREENCASTLE +  CLEAR     68  59  73 CALM      30.09R
LAFAYETTE      CLEAR     69  64  84 CALM      30.05R
TERRE HAUTE    CLEAR     68  63  84 CALM      30.07R

$$

INZ030>032-037>040-046>048-054>057-064-065-310400-
CENTRAL INDIANA

CITY           SKY/WX    TMP DP  RH WIND       PRES   REMARKS
GREENWOOD *+   CLEAR     66  61  82 CALM      30.08R
INDIANAPOLIS   PTCLDY    74  61  63 W5        30.06R
-EAGLE CREEK   CLEAR     73  62  68 CALM      30.06R
KOKOMO *+      CLEAR     72  59  64 W8        30.05R
MT COMFORT *+  CLEAR     68  63  83 W3        30.07R
SHELBYVILLE    CLEAR     67  63  87 SW3       30.06R

$$

INZ033-034-041-042-049-050-058-059-310400-
EAST CENTRAL INDIANA

CITY           SKY/WX    TMP DP  RH WIND       PRES   REMARKS
MUNCIE         CLEAR     67  62  84 CALM      30.06R

$$

INZ060-061-067>069-081>083-085>088-310400-
SOUTHWEST INDIANA

CITY           SKY/WX    TMP DP  RH WIND       PRES   REMARKS
EVANSVILLE     CLEAR     76  65  68 W6        30.09R
HUNTINGBURG *+ PTCLDY    70  64  83 CALM      30.09R

$$

INZ062-063-066-070>080-084-089>092-310400-
SOUTH CENTRAL AND SOUTHEAST INDIANA

CITY           SKY/WX    TMP DP  RH WIND       PRES   REMARKS
BLOOMINGTON    CLEAR     66  64  93 CALM      30.09R
MADISON *+     CLEAR     66  63  88 CALM      30.10R
SEYMOUR +      CLEAR     68  64  88 CALM      30.07R

$$




USA.gov is the U.S. government's official web portal to all federal, state and local government web resources and services.